Regional Weather Roundup
Issued by NWS

Home | Current Version | Previous Version | Text Only | Print | Product List | Glossary Off
Versions: 1 2 3 4 5 6 7 8 9 10 11 12 13 14 15 16 17 18 19 20 21 22 23 24 25 26 27 28 29 30 31 32 33 34 35 36 37 38 39 40 41 42 43 44 45 46 47 48 49 50

000
ASUS43 KIND 300309
RWRIN

WEATHER ROUNDUP FOR INDIANA
NATIONAL WEATHER SERVICE INDIANAPOLIS IN
1100 PM EDT WED JUL 29 2015

NOTE: "FAIR" INDICATES FEW OR NO CLOUDS BELOW 12,000 FEET WITH NO
SIGNIFICANT WEATHER AND/OR OBSTRUCTIONS TO VISIBILITY.

* - STATION DOES NOT REPORT WEATHER SUCH AS PRECIPITATION OR FOG.

+ - STATION NOT QUALITY CONTROLLED BY THE NATIONAL WEATHER SERVICE.
    USE DATA WITH CAUTION...ESPECIALLY DEWPOINT AND RELATIVE
    HUMIDITY OBSERVATIONS.

INZ001>003-010>013-019-020-300400-
NORTHWEST INDIANA

CITY           SKY/WX    TMP DP  RH WIND       PRES   REMARKS
GARY /AIRPORT/ PTCLDY    77  57  50 W7        30.03R
KNOX *+        CLEAR     70  55  60 W8        30.01R
LA PORTE +     CLEAR     70  58  66 W3        30.02R
MICHIGAN CITY+ CLEAR     73  55  53 W5        30.02R
MONTICELLO +   CLEAR     70  60  70 W3        30.02R
RENSSELAER +   CLEAR     68  61  77 W5        30.04R
VALPARAISO     CLEAR     69  58  67 W9        30.03R

$$

LMZ046-743>745-300400-
SOUTHERN LAKE MICHIGAN

STATION/POSITION TIME  TEMP    WIND        PRES    WAVE
                       AIR SEA DIR/SP/G            HT
                 (UTC) (F)     (DEG/KT/KT) (MB)    (FT)
BURNS HARBOR     0200   77     280/ 10/ 12 1015.9R
MICHIGAN CITY    0215   77     260/ 15/ 17   N/A
5NW MICH CITY    0300   77 74  290/ 10/ 14   N/A     2

$$

INZ004-005-014>016-021>024-300400-
NORTH CENTRAL INDIANA

CITY           SKY/WX    TMP DP  RH WIND       PRES   REMARKS
GOSHEN         CLEAR     66  58  75 W3        30.00R
LOGANSPORT +   PTCLDY    72  52  49 W6        30.03S
PERU/GRISSOM   PTCLDY    71  60  67 NW8       30.01R
ROCHESTER +    CLEAR     73  63  68 W8        30.02R
SOUTH BEND     CLEAR     69  60  73 W7        30.01R
WARSAW +       CLEAR     68  59  73 CALM      30.01R

$$

INZ006>009-017-018-025>027-300400-
NORTHEAST INDIANA

CITY           SKY/WX    TMP DP  RH WIND       PRES   REMARKS
ANGOLA *+      CLEAR     64  57  77 CALM      30.00R
AUBURN +       CLEAR     70  57  64 CALM      30.00R
FORT WAYNE     PTCLDY    69  62  78 W5        30.00R
HUNTINGTON +   PTCLDY    70  62  76 CALM      30.00S

$$

INZ028-029-035-036-043>045-051>053-300400-
WEST CENTRAL INDIANA

CITY           SKY/WX    TMP DP  RH WIND       PRES   REMARKS
CRAWFORDSVL +  PTCLDY    67  59  76 NW5         N/A
GREENCASTLE +  MOCLDY    73  59  60 NW3       30.05R
LAFAYETTE      CLEAR     67  62  84 W5        30.03R
TERRE HAUTE    PTCLDY    74  61  63 NW5       30.05R

$$

INZ030>032-037>040-046>048-054>057-064-065-300400-
CENTRAL INDIANA

CITY           SKY/WX    TMP DP  RH WIND       PRES   REMARKS
FISHERS *+     MOCLDY    73  64  73 NW8       30.04R
FRANKFORT +    PTCLDY    70  62  74 W6        30.06R
GREENWOOD *+   MOCLDY    77  63  61 NW6       30.04R
INDIANAPOLIS   MOCLDY    76  59  55 NW10      30.03R
-EAGLE CREEK   MOCLDY    76  61  59 NW10      30.03R
KOKOMO *+      PTCLDY    73  57  56 NW9       30.02R
MARION +       PTCLDY    73  65  76 NW7       30.02R
MT COMFORT *+  MOCLDY    75  61  60 NW8       30.03R
SHELBYVILLE    MOCLDY    79  66  64 NW8       30.02R
ZIONSVILLE +   MOCLDY    73  61  65 NW5       30.05R

$$

INZ033-034-041-042-049-050-058-059-300400-
EAST CENTRAL INDIANA

CITY           SKY/WX    TMP DP  RH WIND       PRES   REMARKS
MUNCIE         CLOUDY    77  73  87 NW6       30.01R

$$

INZ060-061-067>069-081>083-085>088-300400-
SOUTHWEST INDIANA

CITY           SKY/WX    TMP DP  RH WIND       PRES   REMARKS
EVANSVILLE     CLOUDY    82  74  76 N7        30.04R
HUNTINGBURG *+ CLOUDY    81  73  78 N6        30.04R
WASHINGTON +   CLOUDY    75  70  85 W3        30.04R

$$

INZ062-063-066-070>080-084-089>092-300400-
SOUTH CENTRAL AND SOUTHEAST INDIANA

CITY           SKY/WX    TMP DP  RH WIND       PRES   REMARKS
BLOOMINGTON    CLOUDY    77  67  71 CALM      30.05R
MADISON *+     CLOUDY    73  72  94 CALM      30.04S
NORTH VERNON + CLOUDY    77  77 100 S5        30.03R
SEYMOUR +      CLOUDY    77  75  94 CALM      30.02R FOG

$$




USA.gov is the U.S. government's official web portal to all federal, state and local government web resources and services.